[[{"header":{"parameterUnit":"m.s-1","parameterCategory":1,"la1":30.2991,"la2":30.254,"lo1":-89.0895,"lo2":-89.0444,"dy":0.0017,"dx":0.0017,"nx":28,"ny":28,"refTime":"2025-01-02T03:00:00:Z","depth":0,"parameterNumber":2,"parameterNumberName":"U-component_of_WINDS"},"data":[0,0,0,0,0,0,0,0,0,0,0,0,0,0,0,0,0,0,0,0,0,0,0,0,0,0,0,0,0,0,0,0,0,0,0,0,0,0,0,0,0,0,0,0,0,0,0,0,0,0,0,0,0,0,0,0,0,0,-3.0596,-3.0597,0,-3.066,-3.0661,-3.0661,-3.0569,-3.0566,-3.0563,-3.056,-3.0627,-3.0632,-3.0637,0,0,0,0,0,0,0,0,0,0,0,0,0,-3.0396,-3.0401,-3.0596,-3.0597,-3.0598,-3.066,-3.0661,-3.0661,-3.057,-3.0566,-3.0562,-3.0558,-3.0625,-3.0631,-3.0637,0,0,0,0,0,0,0,0,0,0,0,0,0,-3.0474,-3.0402,-3.0596,-3.0559,-3.0557,-3.066,-3.0661,-3.0662,-3.0571,-3.0566,-3.0561,-3.0556,-3.0624,-3.0631,-3.0638,-3.078,0,0,-3.066,-3.0663,0,0,0,0,0,0,0,0,-3.047,-3.0481,-3.0564,-3.0562,-3.0559,-3.0601,-3.0615,-3.0701,-3.0572,-3.0565,-3.0559,-3.0554,-3.0623,-3.063,-3.0652,-3.0783,-3.0786,-3.0661,-3.0665,-3.0668,-3.067,0,0,0,0,0,0,0,-3.0465,-3.0478,-3.0621,-3.0565,-3.0562,-3.054,-3.0546,-3.0631,-3.0621,-3.0566,-3.0559,-3.0568,-3.062,-3.0646,-3.0653,-3.0787,-3.066,-3.0667,-3.0671,-3.0674,-3.1037,-3.1042,0,0,0,0,0,0,-3.0463,-3.0474,-3.0619,-3.0623,-3.0501,-3.0548,-3.0554,-3.0593,-3.0619,-3.0619,-3.0572,-3.0563,-3.0636,-3.0645,-3.0655,-3.0822,-3.0668,-3.0675,-3.0679,-3.1032,-3.1038,-3.1044,0,0,0,0,0,0,-3.0459,-3.0477,-3.0617,-3.0547,-3.0563,-3.0556,-3.0601,-3.0597,-3.0622,-3.0624,-3.0622,-3.0599,-3.0632,-3.0645,-3.0749,-3.0823,-3.0678,-3.0685,-3.1025,-3.1034,-3.1041,-3.1159,0,0,0,0,0,0,-3.0454,-3.0476,-3.053,-3.0549,-3.0567,-3.0709,-3.0605,-3.0601,-3.0634,-3.0623,-3.0649,-3.0649,-3.0629,-3.0739,-3.0757,-3.0831,-3.069,-3.1019,-3.1029,-3.1038,-3.1148,-3.117,-3.1188,0,0,0,0,0,-3.0447,-3.0561,-3.0533,-3.0551,-3.0634,-3.0714,-3.0724,-3.0699,-3.0641,-3.0694,-3.0696,-3.0648,-3.0813,-3.075,-3.0769,-3.0847,-3.1014,-3.1026,-3.1038,-3.1139,-3.1165,-3.1188,0,0,0,0,0,0,-3.0552,-3.0563,-3.0532,-3.0655,-3.0684,-3.0698,-3.0765,-3.0728,-3.0774,-3.0762,-3.0729,-3.0736,-3.0847,-3.0858,-3.0788,-3.0986,-3.0904,-3.092,-3.0974,-3.0999,-3.1019,-3.1013,-3.0696,0,0,0,0,0,-3.0589,-3.0653,-3.0659,-3.0768,-3.0784,-3.0772,-3.0806,-3.0784,-3.0813,-3.0825,-3.0834,-3.0864,-3.0923,-3.0962,-3.1016,-3.115,-3.1153,-3.1212,-3.1232,-3.1249,-3.1263,-3.1333,-3.1359,-3.1083,-3.1083,-3.1083,0,0,-3.0667,-3.0681,-3.0723,-3.0789,-3.0808,-3.0875,-3.0783,-3.0858,-3.0907,-3.0836,-3.0934,-3.0943,-3.0974,-3.1094,-3.1147,-3.1106,-3.134,-3.1264,-3.1277,-3.1282,-3.1348,-3.1374,-3.1397,-3.1091,-3.1089,-3.1088,0,0,-3.0842,-3.086,-3.0951,-3.0973,-3.1004,-3.0995,-3.1018,-3.1037,-3.104,-3.1138,-3.1086,-3.1144,-3.1246,-3.127,-3.1296,-3.1481,-3.1438,-3.15,-3.1604,-3.1673,-3.1694,-3.1713,-3.1778,-3.1802,-3.1514,-3.1514,-3.1515,0,-3.0935,-3.1033,-3.1003,-3.1081,-3.1111,-3.105,-3.1142,-3.1165,-3.1213,-3.1235,-3.1189,-3.1314,-3.1331,-3.1455,-3.15,-3.1523,-3.1547,-3.1496,-3.1694,-3.1712,-3.173,-3.1791,-3.1816,-3.1522,-3.1521,-3.152,-3.1519,0,-3.1145,-3.1213,-3.1284,-3.133,-3.1368,-3.1453,-3.1437,-3.1479,-3.1454,-3.1451,-3.1551,-3.157,-3.1626,-3.1654,-3.1631,-3.1775,-3.1748,-3.1699,-3.1615,-3.1764,-3.182,-3.1844,-3.1532,-3.1529,-3.1527,-3.1525,0,0,-3.1387,-3.1415,-3.1441,-3.1461,-3.1491,-3.1543,-3.1626,-3.168,-3.1716,-3.1752,-3.1819,-3.1907,-3.1861,-3.189,-3.1869,-3.193,-3.2074,-3.1873,-3.1873,-3.1908,-3.2232,-3.2268,-3.2295,-3.2046,-3.2051,-3.2054,-3.2228,0,-3.156,-3.1701,-3.1677,-3.1814,-3.1876,-3.1819,-3.1891,-3.1917,-3.1917,-3.197,-3.197,-3.2032,-3.1967,-3.1984,-3.2042,-3.2044,-3.2138,-3.2031,-3.2108,-3.2111,-3.21,-3.2325,-3.2363,-3.2527,-3.2251,-3.2254,-3.2257,0,-3.1781,-3.1823,-3.1966,-3.1985,-3.201,-3.2075,-3.2122,-3.2174,-3.2203,-3.2198,-3.2231,-3.2199,-3.2281,-3.2198,-3.231,-3.2238,-3.2269,-3.2275,-3.2281,-3.2285,-3.2192,-3.2334,-3.2579,-3.2602,-3.2292,-3.2289,-3.2287,0,-3.1941,-3.2034,-3.213,-3.215,-3.2175,-3.2221,-3.2234,-3.2258,-3.2292,-3.2334,-3.2355,-3.2407,-3.2435,-3.2476,-3.2458,-3.24,-3.2574,-3.2489,-3.2572,-3.2572,-3.2609,-3.2607,-3.286,-3.2633,-3.2632,-3.2632,-3.2631,0,-3.2136,-3.2225,-3.2202,-3.2262,-3.236,-3.2332,-3.2431,-3.2437,-3.2459,-3.2518,-3.2474,-3.2531,-3.2505,-3.2561,-3.2548,-3.2642,-3.2656,-3.2654,-3.2649,-3.2657,-3.2657,-3.2675,-3.2663,-3.2638,-3.2637,-3.2635,-3.2634,0,-3.233,-3.2319,-3.242,-3.2436,-3.2442,-3.2514,-3.2527,-3.2583,-3.2579,-3.2655,-3.2672,-3.2666,-3.273,-3.2717,-3.2787,-3.2778,-3.2896,-3.2878,-3.2886,-3.2881,-3.2963,-3.2955,-3.3235,-3.327,-3.3022,-3.3024,-3.3026,0,-3.2455,-3.2522,-3.2544,-3.2581,-3.2597,-3.2656,-3.269,-3.2666,-3.2703,-3.2741,-3.2792,-3.2852,-3.2897,-3.3001,-3.3003,-3.3057,-3.3039,-3.3133,-3.3046,-3.3052,-3.3038,-3.3033,-3.3039,-3.315,-3.3153,-3.3155,-3.3157,0,-3.2676,-3.2667,-3.2717,-3.2766,-3.2808,-3.2845,-3.2878,-3.2911,-3.289,-3.2934,-3.2998,-3.3033,-3.3104,-3.3163,-3.3212,-3.3226,-3.3188,-3.3185,-3.3206,-3.3214,-3.3215,-3.3214,-3.2931,-3.3178,-3.3176,-3.3174,-3.3173,-3.3172,-3.2838,-3.2894,-3.2919,-3.2976,-3.2999,-3.3031,-3.3083,-3.3086,-3.3138,-3.3193,-3.3176,-3.3249,-3.3276,-3.3338,-3.3357,-3.3414,-3.3378,-3.341,-3.3417,-3.3425,-3.3434,-3.3208,-3.3423,-3.3422,-3.3422,-3.3421,-3.3421,0,-3.3055,-3.3068,-3.3121,-3.3169,-3.3214,-3.3174,-3.3209,-3.325,-3.3314,-3.3342,-3.3387,-3.346,-3.3518,-3.3525,-3.3579,-3.3622,-3.3606,-3.3637,-3.3633,-3.3636,-3.3464,-3.3439,-3.3649,-3.3649,-3.3649,-3.3649,-3.3649,-3.3649,-3.3173,-3.3266,-3.326,-3.3364,-3.3376,-3.3446,-3.3469,-3.3499,-3.352,-3.3604,-3.365,-3.3655,-3.3674,-3.3729,-3.378,-3.3781,-3.3802,-3.3839,-3.3833,-3.3672,-3.3649,-3.3627,-3.3603,-3.3845,-3.3845,-3.4001,-3.4002,-3.4003]},{"header":{"parameterUnit":"m.s-1","parameterCategory":1,"la1":30.2991,"la2":30.254,"lo1":-89.0895,"lo2":-89.0444,"dy":0.0017,"dx":0.0017,"nx":28,"ny":28,"refTime":"2025-01-02T03:00:00:Z","depth":0,"parameterNumber":3,"parameterNumberName":"V-component_of_WINDS"},"data":[0,0,0,0,0,0,0,0,0,0,0,0,0,0,0,0,0,0,0,0,0,0,0,0,0,0,0,0,0,0,0,0,0,0,0,0,0,0,0,0,0,0,0,0,0,0,0,0,0,0,0,0,0,0,0,0,0,0,1.15,1.1501,0,1.154,1.1541,1.1541,1.1574,1.1574,1.1574,1.1575,1.1613,1.1614,1.1614,0,0,0,0,0,0,0,0,0,0,0,0,0,1.145,1.1451,1.15,1.1501,1.1501,1.154,1.1541,1.1541,1.1574,1.1574,1.1574,1.1575,1.1613,1.1613,1.1614,0,0,0,0,0,0,0,0,0,0,0,0,0,1.1479,1.1451,1.15,1.1522,1.1525,1.154,1.1541,1.1542,1.1574,1.1574,1.1575,1.1575,1.1612,1.1613,1.1614,1.1611,0,0,1.1618,1.1618,0,0,0,0,0,0,0,0,1.1477,1.1481,1.1519,1.1521,1.1523,1.1553,1.1537,1.1565,1.1573,1.1555,1.1575,1.1575,1.1592,1.1595,1.1601,1.1613,1.1614,1.1618,1.1618,1.1619,1.1619,0,0,0,0,0,0,0,1.1475,1.1479,1.1516,1.1519,1.1522,1.153,1.1534,1.1543,1.157,1.1557,1.1559,1.1563,1.1594,1.16,1.1602,1.1615,1.1618,1.1619,1.1619,1.162,1.1626,1.1626,0,0,0,0,0,0,1.147,1.1478,1.1515,1.1517,1.1501,1.153,1.1535,1.1543,1.157,1.1575,1.1563,1.1565,1.1598,1.1601,1.1604,1.1602,1.1619,1.162,1.162,1.1627,1.1626,1.1625,0,0,0,0,0,0,1.1469,1.1473,1.1513,1.1498,1.1504,1.153,1.1538,1.1543,1.155,1.1575,1.158,1.1565,1.1599,1.1602,1.1609,1.1604,1.162,1.1621,1.1627,1.1626,1.1626,1.1598,0,0,0,0,0,0,1.1468,1.1473,1.1472,1.1498,1.1505,1.1518,1.1538,1.1544,1.1552,1.1555,1.1578,1.1582,1.1599,1.1608,1.161,1.1606,1.1622,1.1628,1.1627,1.1626,1.1599,1.1596,1.1594,0,0,0,0,0,1.1466,1.1462,1.1472,1.1476,1.1504,1.1518,1.1522,1.1542,1.1551,1.1551,1.1567,1.1582,1.1604,1.1608,1.1611,1.1607,1.1628,1.1627,1.1626,1.1601,1.1597,1.1594,0,0,0,0,0,0,1.1433,1.1465,1.1477,1.1481,1.1497,1.1523,1.1523,1.1537,1.155,1.1552,1.1576,1.1581,1.1585,1.1597,1.1601,1.1605,1.1618,1.1618,1.1598,1.1594,1.1591,1.1588,1.1623,0,0,0,0,0,1.1426,1.1436,1.1463,1.1464,1.1472,1.1496,1.1503,1.1518,1.1534,1.1541,1.1557,1.1572,1.1583,1.1589,1.16,1.1601,1.1607,1.16,1.1597,1.1595,1.1594,1.1596,1.1593,1.1622,1.1622,1.1622,0,0,1.1413,1.1432,1.1436,1.1458,1.1472,1.1481,1.1501,1.1509,1.1516,1.1541,1.1549,1.1562,1.1581,1.1585,1.1587,1.1594,1.1587,1.1593,1.1591,1.1592,1.1595,1.1592,1.1589,1.1621,1.1621,1.1622,0,0,1.1392,1.1407,1.1411,1.1424,1.1445,1.1462,1.1462,1.1487,1.1497,1.1506,1.1526,1.1534,1.1551,1.1564,1.1572,1.1558,1.1572,1.1561,1.1546,1.1547,1.1545,1.1543,1.1538,1.1536,1.156,1.156,1.156,0,1.1372,1.1387,1.141,1.1417,1.1427,1.1452,1.1455,1.1467,1.149,1.1496,1.1504,1.1527,1.1541,1.1549,1.1546,1.1552,1.1553,1.1558,1.1544,1.1542,1.1541,1.1536,1.1534,1.1558,1.1559,1.1559,1.1559,0,1.1361,1.1371,1.1371,1.1394,1.1404,1.1409,1.1433,1.1439,1.1453,1.1469,1.1478,1.1496,1.1511,1.1514,1.1527,1.1524,1.1528,1.1539,1.1553,1.1536,1.1532,1.1531,1.1556,1.1557,1.1557,1.1558,0,0,1.132,1.1357,1.1357,1.1368,1.1394,1.1402,1.1408,1.1424,1.143,1.1445,1.1451,1.1466,1.1477,1.1487,1.1502,1.1504,1.1492,1.1515,1.1516,1.151,1.149,1.1481,1.1478,1.1502,1.1501,1.1501,1.1488,0,1.1304,1.1318,1.1339,1.1346,1.1355,1.138,1.1386,1.1402,1.1417,1.1427,1.1443,1.1453,1.1467,1.1473,1.1476,1.1493,1.1488,1.1494,1.1507,1.1507,1.1501,1.1477,1.1467,1.1454,1.1487,1.1487,1.1486,0,1.1286,1.1302,1.1309,1.1336,1.134,1.1345,1.1362,1.1372,1.139,1.1401,1.1413,1.143,1.1438,1.145,1.1461,1.1465,1.1471,1.1481,1.1481,1.1482,1.1495,1.1478,1.145,1.1448,1.1484,1.1485,1.1485,0,1.1256,1.1278,1.1286,1.1295,1.1326,1.1328,1.1341,1.1361,1.137,1.1384,1.139,1.1406,1.1414,1.1425,1.1445,1.1452,1.1454,1.1468,1.1463,1.1463,1.1462,1.1462,1.1435,1.1466,1.1466,1.1466,1.1467,0,1.1235,1.1239,1.1273,1.1278,1.1283,1.1308,1.1312,1.1327,1.1345,1.1353,1.1374,1.1381,1.1408,1.1418,1.1434,1.1441,1.1444,1.1453,1.1457,1.1451,1.145,1.1455,1.1457,1.1466,1.1466,1.1466,1.1466,0,1.1202,1.1225,1.1235,1.1264,1.1271,1.1274,1.1298,1.1303,1.132,1.133,1.1334,1.1359,1.1372,1.1394,1.1413,1.1423,1.1427,1.1434,1.1421,1.1424,1.1417,1.1418,1.1393,1.1392,1.1424,1.1423,1.1423,0,1.1187,1.1191,1.122,1.1228,1.124,1.1252,1.1261,1.1286,1.1295,1.1318,1.132,1.1335,1.1348,1.1367,1.1387,1.1402,1.141,1.14,1.1412,1.1406,1.141,1.1409,1.141,1.1397,1.1397,1.1396,1.1396,0,1.1158,1.117,1.1184,1.1201,1.1213,1.1227,1.1243,1.1248,1.1276,1.1285,1.1299,1.1309,1.1329,1.1344,1.1361,1.1374,1.139,1.1392,1.1392,1.1386,1.1378,1.1382,1.1414,1.1393,1.1393,1.1393,1.1393,1.1394,1.1134,1.1139,1.1161,1.1176,1.1191,1.1205,1.1212,1.123,1.1243,1.1262,1.1275,1.1288,1.1308,1.1334,1.1345,1.1356,1.1363,1.1362,1.1362,1.1361,1.1359,1.1377,1.1359,1.1359,1.1359,1.1359,1.1359,0,1.1107,1.1123,1.1136,1.1158,1.117,1.1185,1.1204,1.1212,1.1223,1.1241,1.1254,1.127,1.1284,1.1306,1.1322,1.1326,1.1334,1.1329,1.1329,1.1332,1.1352,1.1351,1.1323,1.1323,1.1323,1.1323,1.1323,1.1323,1.1094,1.1104,1.1118,1.1135,1.1151,1.1165,1.1174,1.1187,1.1202,1.1219,1.1232,1.1246,1.1265,1.1283,1.1297,1.1303,1.1308,1.1301,1.1309,1.1327,1.1331,1.1334,1.1333,1.1302,1.1302,1.1289,1.1289,1.1289]}]]